Location: Battersea Observatory
(44.4318°N, 76.3841°W)
Time: 14:52:39
(UTC-05:00)

Explorer 11/Cluster Stage 4 - All Passes

Search period start: 25 January 2022 00:00
Search period end: 04 February 2022 00:00
Orbit: 467 x 1255 km, 28.8° (Epoch: 25 January)

Date Brightness Start Highest point End Pass type
(mag) Time Alt. Az. Time Alt. Az. Time Alt. Az.
01 Feb - 23:43:39 10° S 23:44:30 10° S 23:45:20 10° SSE night (unlit)
02 Feb - 01:31:11 10° SSW 01:31:57 10° S 01:32:43 10° S night (unlit)
02 Feb - 23:30:55 10° SSW 23:33:02 12° S 23:35:01 10° SSE night (unlit)
03 Feb - 01:19:09 10° SSW 01:20:31 11° S 01:21:48 10° S night (unlit)
03 Feb - 23:18:40 10° SSW 23:21:33 14° S 23:24:11 10° SSE night (unlit)
